Location: Ocean City
(38.3360°N, 75.0850°W)
Time: 12:48:59
(UTC-04:00)

ISS - Visible Passes

Search period start: 24 May 2019 00:00
Search period end: 03 June 2019 00:00
Orbit: 408 x 418 km, 51.6° (Epoch: 25 May)

Date Brightness Start Highest point End Pass type
(mag) Time Alt. Az. Time Alt. Az. Time Alt. Az.
24 May -0.5 21:16:10 10° NW 21:17:34 12° NNW 21:18:58 10° N visible
25 May -0.5 00:30:46 10° NNW 00:31:32 14° NNW 00:31:32 14° NNW visible
25 May -0.8 23:41:39 10° NNW 23:43:32 14° NNE 23:43:32 14° NNE visible
26 May -0.7 22:52:41 10° N 22:53:44 11° NNE 22:54:49 10° NNE visible
27 May -0.5 00:28:00 10° NW 00:28:22 12° NW 00:28:22 12° NW visible
27 May -1.1 23:38:43 10° NNW 23:40:25 20° N 23:40:25 20° N visible
28 May -1.3 22:49:30 10° NNW 22:51:49 17° NNE 22:52:30 16° NE visible
29 May -1.0 22:00:22 10° NNW 22:02:01 13° NNE 22:03:41 10° NE visible
29 May -1.3 23:35:58 10° NW 23:37:24 23° NW 23:37:24 23° NW visible
30 May -0.8 21:11:29 10° N 21:12:10 10° NNE 21:12:51 10° NNE visible
30 May -2.3 22:46:35 10° NW 22:49:31 32° NNE 22:49:31 32° NNE visible
31 May -1.7 21:57:17 10° NNW 21:59:57 22° NNE 22:01:40 15° ENE visible
31 May -1.1 23:33:32 10° WNW 23:34:28 17° WNW 23:34:28 17° WNW visible
01 Jun -1.3 21:08:03 10° NNW 21:10:11 16° NNE 21:12:18 10° ENE visible
01 Jun -3.2 22:43:54 10° NW 22:46:39 57° NW 22:46:39 57° NW visible
02 Jun -3.1 21:54:24 10° NW 21:57:38 46° NE 21:58:51 30° E visible
